Regional Weather Roundup
Issued by NWS

Home | Current Version | Previous Version | Text Only | Print | Product List | Glossary Off
Versions: 1 2 3 4 5 6 7 8 9 10 11 12 13 14 15 16 17 18 19 20 21 22 23 24 25 26 27 28 29 30 31 32 33 34 35 36 37 38 39 40 41 42 43 44 45 46 47 48 49 50

000
ASUS45 KABQ 111410
RWRNM
WEATHER ROUNDUP FOR NEW MEXICO
NATIONAL WEATHER SERVICE ALBUQUERQUE NM
800 AM MDT FRI JUL 11 2014

NOTE: "FAIR" MEANS FEW OR NO CLOUDS BELOW 12,000 FEET AGL WITH NO
       SIGNIFICANT WEATHER OR OBSTRUCTIONS TO VISION.

      THIS PRODUCT IS RELEASED AS TWO VERSIONS.  ONE VERSION NEAR
      THE TOP OF THE HOUR CONTAINING PRELIMINARY DATA FROM ALBUQUERQUE
      AND OTHER STATIONS.  A FINAL VERSION WITH ADDITIONAL DATA IS
      ISSUED ABOUT 10 MINUTES AFTER THE HOUR.

NMZ501-503-504-510>518-111500-
NORTHWEST PLATEAU/NORTHCENTRAL MOUNTAINS

CITY           SKY/WX    TMP DP  RH WIND       PRES   REMARKS
FARMINGTON     MOSUNNY   68  56  65 NE5       30.19R
LOS ALAMOS     SUNNY     68  50  51 CALM      30.32R
SANTA FE       SUNNY     69  50  50 CALM      30.25R
TAOS             N/A    N/A N/A N/A MISG        N/A
ANGEL FIRE     FAIR      54  48  80 CALM      30.42R

$$
NMZ402-403-502-505>509-111500-
WESTCENTRAL MOUNTAINS/SOUTHWEST MOUNTAINS

CITY           SKY/WX    TMP DP  RH WIND       PRES   REMARKS
GALLUP         CLOUDY    64  56  75 W5        30.29R
GRANTS         CLOUDY    64  53  69 NE3       30.30R
SILVER CITY    MOSUNNY   73  54  49 MISG      30.19F

$$
NMZ407-409-411-412-111500-
SOUTHERN DESERTS

CITY           SKY/WX    TMP DP  RH WIND       PRES   REMARKS
LORDSBURG      FAIR      72  59  64 NW6       30.11S
DEMING         MOSUNNY   69  58  67 CALM      30.10R
LAS CRUCES     SUNNY     78  52  41 SE5       30.12R
HOLLOMAN AFB   MOSUNNY   74  52  46 NE2       30.10R
ALAMOGORDO     MOSUNNY   73  50  43 NW6       30.13R
T OR C         PTSUNNY   76  55  48 NW5       30.14R

$$
NMZ519>523-111500-
CENTRAL VALLEYS/CENTRAL HIGHLANDS

CITY           SKY/WX    TMP DP  RH WIND       PRES   REMARKS
ALBUQUERQUE    MOSUNNY   71  56  58 SE5       30.20R
DOUBLE EAGLE   MOSUNNY   72  57  60 CALM      30.23R
MORIARTY ARPT  FAIR      65  52  62 S5        30.27R
CLINES CORNERS MOSUNNY   70  48  45 SW10      30.29R
BELEN          FAIR      73  57  57 NE6       30.18R
SOCORRO        FAIR      74  57  54 S6        30.15R

$$
NMZ524>526-539-540-111500-
SOUTHCENTRAL MOUNTAINS

CITY           SKY/WX    TMP DP  RH WIND       PRES   REMARKS
RUIDOSO        PTSUNNY   64  52  63 W6        30.32S

$$
NMZ527>531-111500-
NORTHEAST HIGHLANDS/NORTHEAST PLAINS

CITY           SKY/WX    TMP DP  RH WIND       PRES   REMARKS
LAS VEGAS      SUNNY     64  50  60 S13       30.29R
RATON            N/A    N/A N/A N/A MISG      30.24R
CLAYTON        SUNNY     75  52  44 SW16      30.15S

$$
NMZ532>537-111500-
EASTCENTRAL PLAINS

CITY           SKY/WX    TMP DP  RH WIND       PRES   REMARKS
TUCUMCARI      SUNNY     76  56  49 SW18      30.13R
CANNON AFB     SUNNY     70  57  63 SW10      30.18R
CLOVIS AIRPORT NOT AVBL

$$
NMZ028-029-538-111500-
SOUTHEAST PLAINS

CITY           SKY/WX    TMP DP  RH WIND       PRES   REMARKS
ROSWELL        SUNNY     72  59  63 S13       30.14R
ARTESIA        SUNNY     72  59  64 S10       30.14R
CARLSBAD       SUNNY     73  59  61 SE10      30.11R
HOBBS          SUNNY     70  59  68 SE13      30.16R


$$



USA.gov is the U.S. government's official web portal to all federal, state and local government web resources and services.